Weather History for Hebron, NE

Change the Weather History Date:

Tuesday, February 19, 2013

  Actual Average Record
Temperature  
Mean Temperature 26 °F -  
Max Temperature 33 °F 39 °F 67 °F (1954)
Min Temperature 18 °F 18 °F -11 °F (1978)
Degree Days  
Heating Degree Days 39    
Moisture  
Dew Point 7 °F    
Average Humidity 51    
Maximum Humidity 77    
Minimum Humidity 19    
Precipitation  
Precipitation 0.00 in - - ()
Sea Level Pressure  
Sea Level Pressure 30.26 in    
Wind  
Wind Speed 10 mph (North)    
Max Wind Speed 18 mph    
Max Gust Speed 25 mph    
Visibility 10 miles    
Events      
Averages and records for this station are not official NWS values.
T = Trace of Precipitation, MM = Missing Value Source: NWS Daily Summary

Daily Weather History Graph

Daily Weather History Graph

Search for Another Location

Airport:

Trip Planner

Search our weather history database for the weather conditions in past years. The results will help you decide how hot, cold, wet, or windy it might be!

Date:

Astronomy

Feb. 19, 2013 Rise Set
Actual Time 7:17 AM CST 6:11 PM CST
Civil Twilight 6:50 AM CST 6:38 PM CST
Nautical Twilight 6:18 AM CST 7:10 PM CST
Astronomical Twilight 5:47 AM CST 7:41 PM CST
Moon 12:43 PM CST (2/19) 2:50 AM CST (2/19)
Length of Visible Light 11h 48m
Length of Day
10h 53m
Waxing Gibbous, 67% of the Moon is Illuminated
Feb 19
Waxing Gibbous
Feb 25
Full
Mar 4
Last Quarter
Mar 11
New
Mar 19
First Quarter

Hourly Weather History & Observations

Time (CST) Temp. Windchill Dew Point Humidity Pressure Visibility Wind Dir Wind Speed Gust Speed Precip Events Conditions
12:35 AM 26.2 °F 18.6 °F 17.6 °F 70% 30.12 in 10.0 mi NW 6.9 mph - N/A   Clear
12:55 AM 28.2 °F 18.9 °F 18.0 °F 65% 30.12 in 10.0 mi NW 10.4 mph - N/A   Clear
1:15 AM 27.1 °F 17.5 °F 17.6 °F 67% 30.13 in 10.0 mi NNW 10.4 mph 17.3 mph N/A   Clear
1:35 AM 25.7 °F 15.7 °F 17.4 °F 71% 30.14 in 10.0 mi NNW 10.4 mph - N/A   Clear
1:55 AM 24.6 °F 16.7 °F 17.2 °F 74% 30.16 in 10.0 mi NW 6.9 mph - N/A   Clear
2:15 AM 23.7 °F 15.6 °F 17.1 °F 76% 30.15 in 10.0 mi NW 6.9 mph - N/A   Clear
2:35 AM 23.7 °F 14.7 °F 17.4 °F 77% 30.16 in 10.0 mi NW 8.1 mph - N/A   Clear
2:55 AM 24.8 °F 11.9 °F 17.1 °F 72% 30.15 in 10.0 mi NNW 16.1 mph - N/A   Clear
3:15 AM 25.7 °F 13.5 °F 15.8 °F 66% 30.15 in 10.0 mi NNW 15.0 mph 25.3 mph N/A   Clear
3:35 AM 25.5 °F 13.8 °F 15.3 °F 65% 30.16 in 10.0 mi NNW 13.8 mph - N/A   Clear
3:55 AM 24.4 °F 13.0 °F 15.1 °F 68% 30.17 in 10.0 mi NW 12.7 mph 17.3 mph N/A   Clear
4:15 AM 23.9 °F 12.3 °F 14.9 °F 69% 30.17 in 10.0 mi NNW 12.7 mph - N/A   Clear
4:35 AM 23.9 °F 12.3 °F 14.4 °F 67% 30.17 in 10.0 mi NNW 12.7 mph 17.3 mph N/A   Clear
4:55 AM 23.9 °F 9.9 °F 14.0 °F 66% 30.17 in 10.0 mi North 18.4 mph 23.0 mph N/A   Clear
5:55 AM 21.0 °F 13.4 °F 13.8 °F 74% 30.23 in 10.0 mi WNW 5.8 mph - N/A   Clear
6:15 AM 19.9 °F 11.1 °F 13.5 °F 76% 30.24 in 10.0 mi WNW 6.9 mph - N/A   Clear
6:35 AM 20.8 °F 11.2 °F 14.0 °F 75% 30.24 in 10.0 mi NW 8.1 mph - N/A   Clear
6:55 AM 20.1 °F 10.3 °F 14.0 °F 77% 30.25 in 10.0 mi NW 8.1 mph - N/A   Clear
7:15 AM 20.3 °F 9.8 °F 13.8 °F 76% 30.26 in 10.0 mi NNW 9.2 mph - N/A   Clear
7:35 AM 19.8 °F 10.8 °F 13.5 °F 77% 30.27 in 10.0 mi NW 6.9 mph - N/A   Clear
7:55 AM 19.9 °F 8.6 °F 13.5 °F 76% 30.27 in 10.0 mi NNW 10.4 mph - N/A   Clear
8:15 AM 20.7 °F 8.8 °F 14.0 °F 75% 30.28 in 10.0 mi NNW 11.5 mph - N/A   Clear
8:35 AM 21.6 °F 9.3 °F 13.8 °F 72% 30.29 in 10.0 mi North 12.7 mph 18.4 mph N/A   Clear
8:55 AM 22.1 °F 11.3 °F 13.5 °F 69% 30.30 in 10.0 mi North 10.4 mph 21.9 mph N/A   Clear
9:15 AM 22.6 °F 11.9 °F 13.8 °F 69% 30.32 in 10.0 mi North 10.4 mph - N/A   Scattered Clouds
9:35 AM 23.0 °F 10.6 °F 13.1 °F 66% 30.33 in 10.0 mi NNW 13.8 mph 23.0 mph N/A   Scattered Clouds
9:55 AM 22.8 °F 9.4 °F 11.8 °F 63% 30.32 in 10.0 mi NNW 16.1 mph 19.6 mph N/A   Scattered Clouds
10:15 AM 24.6 °F 12.2 °F 12.7 °F 61% 30.33 in 10.0 mi NNW 15.0 mph 19.6 mph N/A   Scattered Clouds
10:35 AM 24.8 °F 12.4 °F 10.6 °F 55% 30.33 in 10.0 mi NNW 15.0 mph 21.9 mph N/A   Scattered Clouds
11:15 AM 26.6 °F 15.2 °F 6.6 °F 43% 30.33 in 10.0 mi NNW 13.8 mph 19.6 mph N/A   Clear
11:35 AM 27.3 °F 15.6 °F 5.5 °F 40% 30.33 in 10.0 mi North 15.0 mph 19.6 mph N/A   Clear
11:55 AM 28.0 °F 15.7 °F 4.5 °F 37% 30.33 in 10.0 mi NNW 17.3 mph 21.9 mph N/A   Clear
12:15 PM 29.1 °F 17.9 °F 3.4 °F 33% 30.34 in 10.0 mi North 15.0 mph 20.7 mph N/A   Clear
12:35 PM 29.7 °F 19.6 °F 1.4 °F 30% 30.33 in 10.0 mi North 12.7 mph 17.3 mph N/A   Clear
12:55 PM 30.7 °F 21.4 °F 0.3 °F 27% 30.32 in 10.0 mi NNW 11.5 mph 18.4 mph N/A   Clear
1:15 PM 30.9 °F 21.7 °F -0.8 °F 26% 30.31 in 10.0 mi NNW 11.5 mph 16.1 mph N/A   Clear
1:35 PM 32.0 °F 25.6 °F -1.3 °F 24% 30.31 in 10.0 mi NW 6.9 mph - N/A   Clear
1:55 PM 31.8 °F 23.9 °F -1.5 °F 24% 30.30 in 10.0 mi NNW 9.2 mph - N/A   Clear
2:15 PM 32.4 °F 25.3 °F -1.8 °F 23% 30.29 in 10.0 mi NNW 8.1 mph 16.1 mph N/A   Clear
2:35 PM 32.5 °F 28.1 °F -2.7 °F 22% 30.29 in 10.0 mi NNW 4.6 mph - N/A   Clear
2:55 PM 32.5 °F 24.8 °F -4.0 °F 21% 30.29 in 10.0 mi North 9.2 mph - N/A   Clear
3:15 PM 32.4 °F 24.6 °F -4.5 °F 20% 30.28 in 10.0 mi NNW 9.2 mph - N/A   Clear
3:35 PM 33.1 °F 27.7 °F -4.9 °F 20% 30.27 in 10.0 mi North 5.8 mph 10.4 mph N/A   Clear
3:55 PM 33.1 °F 26.1 °F -5.1 °F 19% 30.27 in 10.0 mi NNE 8.1 mph - N/A   Clear
4:15 PM 33.1 °F 26.9 °F -5.4 °F 19% 30.27 in 10.0 mi NNE 6.9 mph - N/A   Clear
4:35 PM 32.9 °F 25.3 °F -6.0 °F 19% 30.27 in 10.0 mi NE 9.2 mph - N/A   Clear
4:55 PM 32.5 °F 24.8 °F -6.0 °F 19% 30.27 in 10.0 mi NNE 9.2 mph - N/A   Clear
5:15 PM 32.0 °F 24.2 °F -5.4 °F 20% 30.26 in 10.0 mi NE 9.2 mph - N/A   Clear
6:35 PM 26.4 °F 18.9 °F -0.6 °F 31% 30.26 in 10.0 mi NE 6.9 mph - N/A   Clear
6:55 PM 25.5 °F 19.9 °F 1.0 °F 35% 30.26 in 10.0 mi ENE 4.6 mph - N/A   Clear
7:15 PM 23.4 °F 17.4 °F 2.7 °F 41% 30.26 in 10.0 mi ENE 4.6 mph - N/A   Clear
7:35 PM 22.8 °F 16.7 °F 3.9 °F 44% 30.27 in 10.0 mi ENE 4.6 mph - N/A   Clear
7:55 PM 23.0 °F 15.8 °F 2.1 °F 41% 30.27 in 10.0 mi ENE 5.8 mph - N/A   Clear
8:15 PM 22.6 °F 16.5 °F 1.4 °F 40% 30.28 in 10.0 mi ENE 4.6 mph - N/A   Clear
8:35 PM 21.2 °F - 3.0 °F 46% 30.30 in 10.0 mi Calm Calm - N/A   Clear
8:55 PM 20.7 °F - 3.7 °F 48% 30.30 in 10.0 mi Calm Calm - N/A   Clear
9:15 PM 20.3 °F 15.4 °F 3.2 °F 48% 30.31 in 10.0 mi NE 3.5 mph - N/A   Clear
9:55 PM 19.6 °F 14.5 °F 5.4 °F 54% 30.30 in 10.0 mi ENE 3.5 mph - N/A   Clear
10:15 PM 20.5 °F 12.8 °F 5.5 °F 53% 30.30 in 10.0 mi ENE 5.8 mph - N/A   Clear
10:35 PM 20.1 °F 10.3 °F 3.2 °F 48% 30.31 in 10.0 mi East 8.1 mph - N/A   Clear
10:55 PM 19.8 °F 13.2 °F 2.8 °F 48% 30.33 in 10.0 mi East 4.6 mph - N/A   Clear
11:15 PM 19.0 °F 12.3 °F 5.4 °F 55% 30.32 in 10.0 mi ENE 4.6 mph - N/A   Clear
11:35 PM 18.9 °F 9.8 °F 4.3 °F 53% 30.32 in 10.0 mi East 6.9 mph - N/A   Clear